Cartersville, GA

9:23 AM EST on December 14, 2019 (GMT -0500)
Cartersville

Weather History for KVPC - November, 2019

Change the Weather History Date:

Tuesday, November 12, 2019

  Actual Average Record
Temperature  
Mean Temperature 42 °F 53 °F  
Max Temperature 58 °F 65 °F 78 °F (2003)
Min Temperature 25 °F 40 °F 27 °F (2011)
Degree Days  
Heating Degree Days 24 13  
Month to date heating degree days 182 133  
Since 1 July heating degree days 262 325  
Moisture  
Dew Point 33 °F    
Average Humidity 78    
Maximum Humidity 93    
Minimum Humidity 61    
Precipitation  
Precipitation 0.50 in 0.12 in 3.52 in (2018)
Month to date precipitation 1.18 1.35  
Year to date precipitation 39.44 42.96  
Snow  
Snow - - - ()
Month to date snowfall 0.0  
Since 1 July snowfall 0.0  
Since 1 September snowfall 0.0  
Snow Depth 0.00 in    
Sea Level Pressure  
Sea Level Pressure 30.13 in    
Wind  
Wind Speed 5 mph ()    
Max Wind Speed 18 mph    
Max Gust Speed 26 mph    
Visibility 8.9 miles    
Events Rain    
T = Trace of Precipitation, MM = Missing Value Source: Averaged Metar Reports

Daily Weather History Graph

Daily Weather History Graph

Search for Another Location

Airport or City:

Astronomy

Nov. 12, 2019 Rise Set
Actual Time 7:09 AM EST 5:37 PM EST
Civil Twilight 6:42 AM EST 6:04 PM EST
Nautical Twilight 6:12 AM EST 6:34 PM EST
Astronomical Twilight 5:42 AM EST 7:03 PM EST
Moon 6:03 PM EST (11/12) 7:02 AM EST (11/12)
Length of Visible Light 11h 21m
Length of Day
10h 28m
Full, 100% of the Moon is Illuminated
Nov 12
Full
Nov 19
Last Quarter
Nov 26
New
Dec 4
First Quarter
Dec 12
Full

Hourly Weather History & Observations

Time (EST) Temp. Windchill Dew Point Humidity Pressure Visibility Wind Dir Wind Speed Gust Speed Precip Events Conditions
12:53 AM 57.0 °F - 55.0 °F 93% 29.96 in 7.0 mi Calm Calm - 0.02 in Rain Light Rain
1:22 AM 57.0 °F - 55.0 °F 93% 29.97 in 6.0 mi Calm Calm - 0.02 in Rain Light Rain
1:36 AM 57.0 °F - 55.0 °F 93% 29.96 in 7.0 mi North 3.5 mph - 0.02 in Rain Light Rain
1:53 AM 57.0 °F - 54.0 °F 89% 29.94 in 8.0 mi Calm Calm - 0.03 in Rain Light Rain
2:43 AM 55.9 °F - 54.0 °F 93% 29.95 in 9.0 mi Calm Calm - 0.03 in   Overcast
2:53 AM 55.9 °F - 53.1 °F 90% 29.92 in 10.0 mi Calm Calm - 0.03 in   Overcast
2:57 AM 55.9 °F - 53.1 °F 90% 29.94 in 10.0 mi North 3.5 mph - N/A   Overcast
3:07 AM 55.9 °F - 53.1 °F 90% 29.94 in 6.0 mi North 6.9 mph - 0.00 in Rain Light Rain
3:53 AM 48.9 °F - 45.0 °F 86% 29.97 in 5.0 mi North 11.5 mph 23.0 mph 0.08 in Rain Light Rain
4:30 AM 45.0 °F 41.8 °F 41.0 °F 86% 30.02 in 6.0 mi NNW 5.8 mph 18.4 mph 0.11 in Rain Rain
4:53 AM 43.0 °F 38.8 °F 39.9 °F 89% 30.01 in 5.0 mi Variable 6.9 mph - 0.17 in Rain Rain
5:53 AM 39.9 °F 34.5 °F 36.0 °F 86% 30.05 in 8.0 mi NNW 8.1 mph 19.6 mph 0.08 in Rain Light Rain
6:36 AM 39.0 °F 32.8 °F 35.1 °F 86% 30.08 in 7.0 mi North 9.2 mph 24.2 mph 0.05 in Rain Light Rain
6:43 AM 39.0 °F 32.8 °F 35.1 °F 86% 30.08 in 9.0 mi NNW 9.2 mph 17.3 mph 0.06 in Rain Light Rain
6:53 AM 39.0 °F 32.3 °F 35.1 °F 86% 30.07 in 8.0 mi NNW 10.4 mph 16.1 mph 0.07 in Rain Light Rain
7:09 AM 37.9 °F 32.7 °F 34.0 °F 86% 30.09 in 8.0 mi Variable 6.9 mph 17.3 mph 0.01 in Rain Light Rain
7:17 AM 37.9 °F 34.4 °F 34.0 °F 86% 30.10 in 8.0 mi Variable 4.6 mph - 0.02 in Rain Light Rain
7:53 AM 37.0 °F 31.0 °F 32.0 °F 82% 30.12 in 10.0 mi NW 8.1 mph 17.3 mph 0.02 in   Overcast
8:02 AM 37.0 °F 30.4 °F 32.0 °F 82% 30.13 in 10.0 mi NNW 9.2 mph 21.9 mph N/A   Overcast
8:53 AM 36.0 °F 26.7 °F 30.9 °F 82% 30.14 in 10.0 mi North 15.0 mph 21.9 mph N/A   Overcast
9:53 AM 37.0 °F 29.8 °F 28.9 °F 73% 30.16 in 10.0 mi North 10.4 mph 24.2 mph N/A   Overcast
10:53 AM 36.0 °F 28.5 °F 28.9 °F 76% 30.18 in 10.0 mi NNW 10.4 mph 23.0 mph N/A   Overcast
11:53 AM 36.0 °F 28.0 °F 28.0 °F 73% 30.19 in 10.0 mi NNW 11.5 mph 23.0 mph N/A   Overcast
12:53 PM 35.1 °F 27.4 °F 27.0 °F 72% 30.20 in 10.0 mi NNW 10.4 mph 23.0 mph N/A   Overcast
1:53 PM 35.1 °F 30.1 °F 26.1 °F 70% 30.20 in 10.0 mi Variable 5.8 mph 19.6 mph N/A   Overcast
2:53 PM 36.0 °F 30.3 °F 25.0 °F 64% 30.20 in 10.0 mi Variable 6.9 mph 17.3 mph N/A   Unknown
3:12 PM 35.1 °F 28.6 °F 24.1 °F 64% 30.21 in 10.0 mi NW 8.1 mph 21.9 mph N/A   Overcast
3:53 PM 34.0 °F 26.6 °F 23.0 °F 64% 30.22 in 10.0 mi NNW 9.2 mph 16.1 mph N/A   Overcast
4:53 PM 33.1 °F 24.9 °F 21.9 °F 64% 30.24 in 10.0 mi NNW 10.4 mph 19.6 mph N/A   Overcast
5:53 PM 30.9 °F 23.5 °F 19.9 °F 64% 30.27 in 10.0 mi NNW 8.1 mph 17.3 mph N/A   Overcast
6:35 PM 30.0 °F 22.4 °F 19.9 °F 66% 30.28 in 10.0 mi NNW 8.1 mph - N/A   Overcast
6:53 PM 30.0 °F 22.4 °F 19.0 °F 64% 30.28 in 10.0 mi North 8.1 mph - N/A   Overcast
7:22 PM 28.9 °F 19.2 °F 17.1 °F 61% 30.29 in 10.0 mi NNW 11.5 mph 19.6 mph N/A   Scattered Clouds
7:53 PM 28.9 °F 20.4 °F 17.1 °F 61% 30.30 in 10.0 mi North 9.2 mph - N/A   Clear
8:53 PM 28.0 °F 18.1 °F 17.1 °F 63% 30.31 in 10.0 mi North 11.5 mph 18.4 mph N/A   Clear
9:53 PM 27.0 °F 18.0 °F 16.0 °F 63% 30.32 in 10.0 mi North 9.2 mph 19.6 mph N/A   Clear
10:53 PM 26.1 °F 20.5 °F 16.0 °F 66% 30.33 in 10.0 mi NNW 4.6 mph - N/A   Clear
11:53 PM 25.0 °F 19.3 °F 15.1 °F 66% 30.34 in 10.0 mi NNW 4.6 mph - N/A   Clear